| time (UTC) | temp F | wind direction | speed knots | gust knots | rain 1hr in | rain 24hr in | rain mn in | humidity % | barometer mb |
| 20260508002043 | 53 | 150 | 0.0 | 0.0 | 0.00 | 0.07 | 0.07 | 88 | 1012.2 |
| 20260508001538 | 53 | 120 | 0.0 | 0.0 | 0.00 | 0.07 | 0.07 | 88 | 1012.1 |
| 20260508001035 | 53 | 167 | 0.0 | 0.0 | 0.00 | 0.07 | 0.07 | 87 | 1012.1 |
| 20260508000531 | 54 | 178 | 0.0 | 0.0 | 0.00 | 0.07 | 0.07 | 87 | 1011.7 |
| 20260508000028 | 54 | 202 | 0.9 | 0.9 | 0.00 | 0.07 | 0.07 | 87 | 1011.7 |
| 20260507235525 | 54 | 192 | 0.9 | 1.7 | 0.00 | 0.07 | 0.07 | 87 | 1011.7 |
| 20260507235022 | 54 | 202 | 1.7 | 1.7 | 0.00 | 0.07 | 0.07 | 86 | 1011.6 |
| 20260507234518 | 55 | 199 | 0.9 | 1.7 | 0.00 | 0.07 | 0.07 | 86 | 1011.5 |
| 20260507234015 | 55 | 202 | 0.9 | 0.9 | 0.00 | 0.07 | 0.07 | 85 | 1011.6 |
| 20260507233512 | 55 | 177 | 0.9 | 1.7 | 0.00 | 0.07 | 0.07 | 85 | 1011.4 |
| 20260507233011 | 56 | 156 | 1.7 | 1.7 | 0.00 | 0.07 | 0.07 | 85 | 1011.4 |
| 20260507232507 | 56 | 164 | 0.0 | 0.0 | 0.00 | 0.07 | 0.07 | 84 | 1011.2 |
| 20260507232004 | 56 | 179 | 2.6 | 2.6 | 0.00 | 0.07 | 0.07 | 84 | 1011.5 |
| 20260507231500 | 56 | 170 | 3.5 | 4.3 | 0.00 | 0.07 | 0.07 | 83 | 1011.2 |
| 20260507230957 | 56 | 179 | 0.0 | 0.9 | 0.00 | 0.07 | 0.07 | 83 | 1011.2 |
| 20260507230454 | 56 | 148 | 0.0 | 0.9 | 0.00 | 0.07 | 0.07 | 83 | 1011.2 |
| 20260507225949 | 56 | 191 | 0.0 | 0.0 | 0.00 | 0.07 | 0.07 | 83 | 1011.1 |
| 20260507225446 | 56 | 162 | 0.9 | 1.7 | 0.00 | 0.07 | 0.07 | 83 | 1010.8 |
| 20260507224942 | 56 | 157 | 0.0 | 0.0 | 0.00 | 0.07 | 0.07 | 83 | 1010.8 |
| 20260507224438 | 56 | 175 | 0.9 | 1.7 | 0.00 | 0.07 | 0.07 | 84 | 1011.1 |
| 20260507223935 | 56 | 205 | 2.6 | 4.3 | 0.00 | 0.07 | 0.07 | 84 | 1010.8 |
| 20260507223431 | 56 | 175 | 0.0 | 0.9 | 0.00 | 0.07 | 0.07 | 84 | 1010.7 |
| 20260507222928 | 56 | 142 | 2.6 | 4.3 | 0.00 | 0.07 | 0.07 | 83 | 1010.7 |
| 20260507222425 | 57 | 156 | 0.0 | 0.9 | 0.00 | 0.07 | 0.07 | 83 | 1010.7 |
| 20260507221922 | 56 | 165 | 1.7 | 2.6 | 0.00 | 0.07 | 0.07 | 83 | 1010.7 |
| 20260507221418 | 57 | 201 | 1.7 | 1.7 | 0.00 | 0.07 | 0.07 | 83 | 1010.7 |
| 20260507220914 | 56 | 173 | 2.6 | 2.6 | 0.00 | 0.07 | 0.07 | 82 | 1010.5 |
| 20260507220412 | 57 | 128 | 1.7 | 2.6 | 0.00 | 0.07 | 0.07 | 82 | 1010.5 |
| 20260507215908 | 56 | 166 | 2.6 | 4.3 | 0.00 | 0.07 | 0.07 | 83 | 1010.2 |
| 20260507215405 | 56 | 204 | 0.9 | 0.9 | 0.00 | 0.07 | 0.07 | 83 | 1010.4 |
| 20260507214903 | 56 | 157 | 3.5 | 4.3 | 0.00 | 0.07 | 0.07 | 83 | 1010.4 |
| 20260507214400 | 56 | 213 | 2.6 | 2.6 | 0.00 | 0.07 | 0.07 | 83 | 1010.4 |
| 20260507213855 | 56 | 169 | 2.6 | 2.6 | 0.00 | 0.07 | 0.07 | 83 | 1010.4 |
| 20260507213352 | 56 | 202 | 3.5 | 4.3 | 0.00 | 0.07 | 0.07 | 82 | 1010.4 |
| 20260507212849 | 57 | 207 | 1.7 | 2.6 | 0.00 | 0.07 | 0.07 | 82 | 1010.3 |
| 20260507212345 | 57 | 183 | 3.5 | 4.3 | 0.00 | 0.07 | 0.07 | 82 | 1010.5 |
| 20260507211842 | 57 | 134 | 2.6 | 2.6 | 0.00 | 0.07 | 0.07 | 82 | 1010.3 |
| 20260507211339 | 58 | 156 | 4.3 | 5.2 | 0.00 | 0.07 | 0.07 | 81 | 1010.2 |
| 20260507210835 | 58 | 187 | 4.3 | 5.2 | 0.00 | 0.07 | 0.07 | 81 | 1010.4 |
| 20260507210333 | 58 | 137 | 2.6 | 4.3 | 0.00 | 0.07 | 0.07 | 83 | 1010.4 |
| 20260507205829 | 57 | 207 | 0.0 | 0.9 | 0.00 | 0.07 | 0.07 | 83 | 1010.2 |
| 20260507205326 | 57 | 209 | 2.6 | 6.1 | 0.00 | 0.07 | 0.07 | 83 | 1010.3 |
| 20260507204822 | 58 | 181 | 2.6 | 2.6 | 0.00 | 0.07 | 0.07 | 83 | 1010.3 |
| 20260507204320 | 58 | 183 | 1.7 | 1.7 | 0.00 | 0.07 | 0.07 | 83 | 1010.3 |
| 20260507203817 | 58 | 189 | 0.9 | 0.9 | 0.00 | 0.07 | 0.07 | 82 | 1010.3 |
| 20260507203315 | 57 | 146 | 1.7 | 1.7 | 0.00 | 0.07 | 0.07 | 83 | 1010.5 |
| 20260507202811 | 57 | 148 | 1.7 | 1.7 | 0.00 | 0.07 | 0.07 | 83 | 1010.5 |
| 20260507202307 | 59 | 194 | 2.6 | 4.3 | 0.00 | 0.07 | 0.07 | 82 | 1010.4 |
| 20260507201802 | 58 | 136 | 1.7 | 1.7 | 0.00 | 0.07 | 0.07 | 81 | 1010.5 |
| 20260507201259 | 59 | 213 | 0.0 | 0.9 | 0.00 | 0.07 | 0.07 | 80 | 1010.6 |
| 20260507200755 | 58 | 148 | 1.7 | 1.7 | 0.00 | 0.07 | 0.07 | 81 | 1010.5 |
| 20260507200251 | 58 | 158 | 0.9 | 0.9 | 0.00 | 0.07 | 0.07 | 82 | 1010.7 |
| 20260507195747 | 58 | 136 | 1.7 | 1.7 | 0.00 | 0.07 | 0.07 | 82 | 1010.5 |
| 20260507195245 | 60 | 119 | 4.3 | 6.1 | 0.00 | 0.07 | 0.07 | 81 | 1010.8 |
| 20260507194742 | 59 | 160 | 2.6 | 4.3 | 0.00 | 0.07 | 0.07 | 80 | 1011.2 |
| 20260507194238 | 59 | 172 | 0.9 | 0.9 | 0.00 | 0.07 | 0.07 | 82 | 1011.1 |
| 20260507193735 | 58 | 164 | 2.6 | 2.6 | 0.00 | 0.07 | 0.07 | 80 | 1011.3 |
| 20260507193231 | 57 | 144 | 0.0 | 0.0 | 0.00 | 0.07 | 0.07 | 81 | 1011.3 |
| 20260507192728 | 58 | 176 | 4.3 | 5.2 | 0.00 | 0.07 | 0.07 | 81 | 1011.4 |
| 20260507192224 | 57 | 116 | 0.9 | 1.7 | 0.00 | 0.07 | 0.07 | 81 | 1011.4 |
| 20260507191720 | 56 | 163 | 1.7 | 2.6 | 0.00 | 0.07 | 0.07 | 82 | 1011.6 |
| 20260507191218 | 56 | 183 | 0.9 | 0.9 | 0.00 | 0.07 | 0.07 | 84 | 1011.8 |
| 20260507190714 | 55 | 151 | 1.7 | 1.7 | 0.00 | 0.07 | 0.07 | 84 | 1011.6 |
| 20260507190213 | 55 | 160 | 0.9 | 1.7 | 0.00 | 0.07 | 0.07 | 85 | 1011.6 |
| 20260507185711 | 55 | 155 | 1.7 | 2.6 | 0.00 | 0.07 | 0.07 | 86 | 1011.8 |
| 20260507185202 | 56 | 154 | 1.7 | 1.7 | 0.00 | 0.07 | 0.07 | 87 | 1011.7 |
| 20260507184700 | 55 | 158 | 1.7 | 2.6 | 0.00 | 0.07 | 0.07 | 85 | 1011.6 |
| 20260507184158 | 56 | 132 | 1.7 | 2.6 | 0.00 | 0.07 | 0.07 | 87 | 1011.7 |
| 20260507183653 | 55 | 173 | 0.9 | 0.9 | 0.00 | 0.07 | 0.07 | 86 | 1011.8 |
| 20260507183150 | 55 | 162 | 0.0 | 0.9 | 0.00 | 0.07 | 0.07 | 84 | 1012.0 |
| 20260507182647 | 55 | 179 | 2.6 | 2.6 | 0.00 | 0.07 | 0.07 | 84 | 1012.1 |
| 20260507182143 | 55 | 182 | 0.9 | 1.7 | 0.00 | 0.07 | 0.07 | 83 | 1011.9 |
| 20260507181639 | 55 | 152 | 0.0 | 0.9 | 0.05 | 0.07 | 0.07 | 83 | 1012.0 |
| 20260507181136 | 55 | 160 | 0.0 | 0.0 | 0.05 | 0.07 | 0.07 | 84 | 1012.0 |
| 20260507180632 | 55 | 174 | 2.6 | 2.6 | 0.00 | 0.06 | 0.06 | 83 | 1012.2 |
| 20260507180130 | 56 | 107 | 0.0 | 0.0 | 0.00 | 0.06 | 0.06 | 82 | 1012.0 |
| 20260507175625 | 56 | 137 | 0.9 | 0.9 | 0.00 | 0.06 | 0.06 | 81 | 1011.9 |
| 20260507175123 | 55 | 113 | 0.0 | 0.0 | 0.00 | 0.06 | 0.06 | 82 | 1012.1 |
| 20260507174620 | 55 | 178 | 0.9 | 0.9 | 0.00 | 0.06 | 0.06 | 82 | 1012.3 |
| 20260507174118 | 55 | 155 | 0.9 | 0.9 | 0.00 | 0.06 | 0.06 | 83 | 1012.3 |
| 20260507173615 | 55 | 153 | 0.0 | 0.0 | 0.00 | 0.06 | 0.06 | 84 | 1012.4 |
| 20260507173112 | 54 | 156 | 0.9 | 0.9 | 0.00 | 0.06 | 0.06 | 83 | 1012.2 |
| 20260507172608 | 54 | 189 | 0.0 | 0.9 | 0.00 | 0.06 | 0.06 | 83 | 1012.4 |
| 20260507172106 | 54 | 103 | 0.9 | 0.9 | 0.00 | 0.06 | 0.06 | 82 | 1012.4 |
| 20260507171601 | 55 | 159 | 0.0 | 0.0 | 0.00 | 0.06 | 0.06 | 83 | 1012.5 |
| 20260507171058 | 55 | 186 | 0.9 | 1.7 | 0.00 | 0.06 | 0.06 | 84 | 1012.7 |
| 20260507170555 | 55 | 116 | 0.0 | 0.0 | 0.00 | 0.06 | 0.06 | 84 | 1012.8 |
| 20260507170052 | 54 | 121 | 0.0 | 0.9 | 0.00 | 0.06 | 0.06 | 84 | 1012.7 |
| 20260507165547 | 55 | 126 | 0.9 | 0.9 | 0.00 | 0.06 | 0.06 | 85 | 1012.9 |
| 20260507165044 | 54 | 137 | 0.9 | 1.7 | 0.00 | 0.06 | 0.06 | 85 | 1013.0 |
| 20260507164540 | 54 | 100 | 0.9 | 0.9 | 0.00 | 0.06 | 0.06 | 87 | 1013.0 |
| 20260507164037 | 54 | 119 | 0.0 | 0.0 | 0.07 | 0.06 | 0.06 | 87 | 1013.1 |
| 20260507163534 | 53 | 111 | 0.9 | 0.9 | 0.07 | 0.06 | 0.06 | 87 | 1013.1 |
| 20260507163032 | 53 | 121 | 0.0 | 0.0 | 0.07 | 0.06 | 0.06 | 87 | 1013.2 |
| 20260507162526 | 53 | 117 | 1.7 | 1.7 | 0.00 | 0.05 | 0.05 | 86 | 1013.3 |
| 20260507162023 | 53 | 112 | 0.0 | 0.9 | 0.00 | 0.05 | 0.05 | 85 | 1014.0 |
| 20260507161520 | 53 | 123 | 0.0 | 0.0 | 0.00 | 0.05 | 0.05 | 87 | 1013.5 |
| 20260507161017 | 53 | 109 | 0.0 | 0.0 | 0.00 | 0.05 | 0.05 | 86 | 1013.5 |
| 20260507160513 | 53 | 97 | 0.9 | 1.7 | 0.00 | 0.05 | 0.05 | 86 | 1013.5 |
| 20260507160009 | 53 | 101 | 0.9 | 0.9 | 0.00 | 0.05 | 0.05 | 86 | 1013.7 |
| 20260507155504 | 53 | 116 | 1.7 | 1.7 | 0.00 | 0.05 | 0.05 | 85 | 1013.8 |
| 20260507155002 | 54 | 81 | 1.7 | 1.7 | 0.00 | 0.05 | 0.05 | 85 | 1013.7 |
| 20260507154458 | 54 | 68 | 0.9 | 1.7 | 0.00 | 0.05 | 0.05 | 87 | 1013.5 |
| 20260507153955 | 54 | 100 | 0.0 | 0.9 | 0.00 | 0.05 | 0.05 | 88 | 1013.9 |
| 20260507153452 | 53 | 113 | 0.0 | 0.0 | 0.00 | 0.05 | 0.05 | 89 | 1013.9 |
| 20260507152949 | 53 | 115 | 0.0 | 0.0 | 0.00 | 0.05 | 0.05 | 90 | 1014.2 |
| 20260507152444 | 52 | 122 | 0.0 | 0.0 | 0.00 | 0.05 | 0.05 | 89 | 1014.1 |
| 20260507151941 | 52 | 130 | 0.0 | 0.0 | 0.00 | 0.05 | 0.05 | 90 | 1014.3 |
| 20260507151437 | 52 | 118 | 0.0 | 0.0 | 0.05 | 0.05 | 0.05 | 90 | 1014.1 |
| 20260507150934 | 52 | 83 | 0.9 | 0.9 | 0.05 | 0.05 | 0.05 | 89 | 1014.0 |
| 20260507150431 | 52 | 107 | 0.9 | 1.7 | 0.07 | 0.04 | 0.04 | 88 | 1013.9 |
| 20260507145927 | 52 | 140 | 0.0 | 0.0 | 0.07 | 0.04 | 0.04 | 88 | 1014.0 |
| 20260507145423 | 52 | 145 | 0.0 | 0.0 | 0.00 | 0.03 | 0.03 | 88 | 1013.9 |
| 20260507144921 | 52 | 65 | 1.7 | 1.7 | 0.00 | 0.03 | 0.03 | 87 | 1013.9 |
| 20260507144417 | 52 | 87 | 0.0 | 0.9 | 0.07 | 0.03 | 0.03 | 88 | 1013.9 |
| 20260507143914 | 52 | 100 | 0.9 | 0.9 | 0.07 | 0.03 | 0.03 | 87 | 1013.8 |
| 20260507143412 | 52 | 90 | 0.0 | 0.0 | 0.00 | 0.02 | 0.02 | 87 | 1014.0 |
| 20260507142908 | 52 | 122 | 0.0 | 0.0 | 0.00 | 0.02 | 0.02 | 88 | 1013.9 |
| 20260507142404 | 52 | 106 | 0.9 | 0.9 | 0.00 | 0.02 | 0.02 | 87 | 1014.1 |
| 20260507141901 | 52 | 61 | 0.9 | 0.9 | 0.00 | 0.02 | 0.02 | 86 | 1014.1 |
| 20260507141357 | 52 | 45 | 1.7 | 1.7 | 0.00 | 0.02 | 0.02 | 86 | 1014.2 |
| 20260507140854 | 53 | 83 | 0.0 | 0.9 | 0.00 | 0.02 | 0.02 | 86 | 1014.3 |
| 20260507140351 | 53 | 105 | 0.0 | 0.0 | 0.05 | 0.02 | 0.02 | 86 | 1014.5 |
| 20260507135849 | 53 | 103 | 0.0 | 0.0 | 0.05 | 0.02 | 0.02 | 86 | 1014.3 |
| 20260507135345 | 53 | 77 | 1.7 | 1.7 | 0.00 | 0.01 | 0.01 | 85 | 1014.1 |
| 20260507134843 | 53 | 134 | 0.0 | 0.0 | 0.00 | 0.01 | 0.01 | 85 | 1014.3 |
| 20260507134339 | 53 | 113 | 0.0 | 0.0 | 0.00 | 0.01 | 0.01 | 85 | 1014.5 |
| 20260507133835 | 53 | 127 | 0.9 | 1.7 | 0.00 | 0.01 | 0.01 | 85 | 1014.3 |
| 20260507133330 | 53 | 127 | 0.0 | 0.0 | 0.00 | 0.01 | 0.01 | 85 | 1014.3 |
| 20260507132829 | 53 | 124 | 0.0 | 0.0 | 0.00 | 0.01 | 0.01 | 85 | 1014.4 |
| 20260507132325 | 53 | 129 | 0.0 | 0.0 | 0.00 | 0.01 | 0.01 | 85 | 1014.5 |
| 20260507131823 | 53 | 112 | 0.0 | 0.0 | 0.00 | 0.01 | 0.01 | 85 | 1014.4 |
| 20260507131319 | 53 | 113 | 0.0 | 0.0 | 0.00 | 0.01 | 0.01 | 84 | 1014.3 |
| 20260507130816 | 53 | 100 | 0.0 | 0.0 | 0.00 | 0.01 | 0.01 | 85 | 1014.2 |
| 20260507130313 | 53 | 114 | 0.0 | 0.0 | 0.00 | 0.01 | 0.01 | 85 | 1014.4 |
| 20260507125812 | 53 | 60 | 0.9 | 1.7 | 0.00 | 0.01 | 0.01 | 85 | 1014.3 |
| 20260507125309 | 53 | 83 | 1.7 | 1.7 | 0.00 | 0.01 | 0.01 | 84 | 1014.3 |
| 20260507124806 | 53 | 98 | 0.9 | 1.7 | 0.00 | 0.01 | 0.01 | 85 | 1014.1 |
| 20260507124302 | 53 | 73 | 0.9 | 0.9 | 0.00 | 0.01 | 0.01 | 85 | 1014.2 |
| 20260507123801 | 53 | 73 | 0.9 | 0.9 | 0.00 | 0.01 | 0.01 | 86 | 1014.0 |
| 20260507123258 | 53 | 81 | 0.9 | 0.9 | 0.00 | 0.01 | 0.01 | 86 | 1014.2 |
| 20260507122754 | 53 | 97 | 0.9 | 0.9 | 0.00 | 0.01 | 0.01 | 86 | 1014.3 |
| 20260507122249 | 53 | 318 | 1.7 | 1.7 | 0.00 | 0.01 | 0.01 | 86 | 1014.0 |
| 20260507121746 | 53 | 72 | 0.0 | 0.9 | 0.00 | 0.01 | 0.01 | 86 | 1014.1 |
| 20260507121241 | 53 | 91 | 0.9 | 0.9 | 0.00 | 0.01 | 0.01 | 86 | 1014.3 |
| 20260507120738 | 53 | 52 | 1.7 | 1.7 | 0.00 | 0.01 | 0.01 | 86 | 1014.1 |
| 20260507120235 | 53 | 17 | 0.9 | 1.7 | 0.00 | 0.01 | 0.01 | 87 | 1013.9 |
| 20260507115731 | 53 | 13 | 0.9 | 0.9 | 0.00 | 0.01 | 0.01 | 87 | 1013.9 |
| 20260507115227 | 53 | 141 | 0.0 | 0.0 | 0.00 | 0.01 | 0.01 | 87 | 1013.9 |
| 20260507114722 | 53 | 90 | 0.9 | 0.9 | 0.00 | 0.01 | 0.01 | 88 | 1014.1 |
| 20260507114220 | 53 | 14 | 2.6 | 2.6 | 0.00 | 0.01 | 0.01 | 88 | 1014.1 |
| 20260507113718 | 53 | 86 | 0.9 | 1.7 | 0.00 | 0.01 | 0.01 | 89 | 1014.2 |
| 20260507113214 | 53 | 89 | 0.9 | 0.9 | 0.00 | 0.01 | 0.01 | 89 | 1013.9 |
| 20260507112712 | 52 | 51 | 0.9 | 1.7 | 0.00 | 0.01 | 0.01 | 89 | 1013.9 |
| 20260507112209 | 53 | 82 | 0.9 | 0.9 | 0.00 | 0.01 | 0.01 | 89 | 1014.0 |
| 20260507111706 | 52 | 80 | 0.9 | 0.9 | 0.00 | 0.01 | 0.01 | 89 | 1013.9 |
| 20260507111203 | 52 | 134 | 0.0 | 0.0 | 0.00 | 0.01 | 0.01 | 90 | 1013.8 |
| 20260507110658 | 52 | 67 | 1.7 | 1.7 | 0.00 | 0.01 | 0.01 | 90 | 1013.8 |
| 20260507110156 | 52 | 92 | 0.9 | 0.9 | 0.00 | 0.01 | 0.01 | 90 | 1013.9 |
| 20260507105653 | 53 | 85 | 0.0 | 0.9 | 0.00 | 0.01 | 0.01 | 90 | 1013.4 |
| 20260507105148 | 53 | 49 | 0.9 | 1.7 | 0.00 | 0.01 | 0.01 | 91 | 1013.3 |
| 20260507104646 | 53 | 86 | 0.9 | 0.9 | 0.00 | 0.01 | 0.01 | 91 | 1013.3 |
| 20260507104142 | 53 | 108 | 0.9 | 0.9 | 0.00 | 0.01 | 0.01 | 90 | 1013.1 |
| 20260507103638 | 53 | 61 | 0.9 | 0.9 | 0.00 | 0.01 | 0.01 | 91 | 1013.4 |
| 20260507103135 | 53 | 70 | 0.0 | 0.9 | 0.00 | 0.01 | 0.01 | 91 | 1013.0 |
| 20260507102632 | 53 | 73 | 0.9 | 1.7 | 0.00 | 0.01 | 0.01 | 91 | 1013.2 |
| 20260507102128 | 53 | 108 | 0.9 | 0.9 | 0.00 | 0.01 | 0.01 | 91 | 1013.1 |
| 20260507101624 | 53 | 132 | 0.0 | 0.0 | 0.00 | 0.01 | 0.01 | 91 | 1012.9 |
| 20260507101120 | 53 | 81 | 1.7 | 1.7 | 0.00 | 0.01 | 0.01 | 91 | 1013.2 |
| 20260507100618 | 53 | 131 | 0.0 | 0.0 | 0.00 | 0.01 | 0.01 | 91 | 1013.3 |
| 20260507100115 | 53 | 115 | 0.9 | 0.9 | 0.00 | 0.01 | 0.01 | 91 | 1013.2 |
| 20260507095613 | 53 | 100 | 0.9 | 1.7 | 0.00 | 0.01 | 0.01 | 91 | 1013.2 |
| 20260507095109 | 53 | 96 | 1.7 | 1.7 | 0.00 | 0.01 | 0.01 | 91 | 1013.0 |
| 20260507094606 | 53 | 57 | 0.0 | 0.9 | 0.00 | 0.01 | 0.01 | 92 | 1013.2 |
| 20260507094103 | 53 | 102 | 0.9 | 1.7 | 0.00 | 0.01 | 0.01 | 91 | 1013.0 |
| 20260507093600 | 53 | 78 | 1.7 | 2.6 | 0.00 | 0.01 | 0.01 | 92 | 1013.2 |
| 20260507093059 | 54 | 75 | 0.9 | 1.7 | 0.00 | 0.01 | 0.01 | 92 | 1013.3 |
| 20260507092555 | 54 | 359 | 1.7 | 1.7 | 0.00 | 0.01 | 0.01 | 92 | 1012.8 |
| 20260507092051 | 54 | 60 | 0.9 | 1.7 | 0.00 | 0.01 | 0.01 | 92 | 1012.7 |
| 20260507091548 | 54 | 100 | 0.0 | 0.0 | 0.00 | 0.01 | 0.01 | 92 | 1012.9 |
| 20260507091044 | 54 | 38 | 1.7 | 1.7 | 0.00 | 0.01 | 0.01 | 92 | 1013.0 |
| 20260507090540 | 54 | 142 | 0.0 | 0.0 | 0.00 | 0.01 | 0.01 | 92 | 1013.1 |
| 20260507090037 | 54 | 86 | 0.0 | 0.9 | 0.00 | 0.01 | 0.01 | 92 | 1012.9 |
| 20260507085535 | 54 | 46 | 1.7 | 1.7 | 0.00 | 0.01 | 0.01 | 91 | 1013.1 |
| 20260507085031 | 54 | 86 | 0.9 | 1.7 | 0.00 | 0.01 | 0.01 | 91 | 1012.8 |
| 20260507084528 | 54 | 34 | 2.6 | 2.6 | 0.00 | 0.01 | 0.01 | 91 | 1012.8 |
| 20260507084025 | 54 | 65 | 1.7 | 2.6 | 0.00 | 0.01 | 0.01 | 92 | 1012.6 |
| 20260507083521 | 54 | 32 | 3.5 | 5.2 | 0.00 | 0.01 | 0.01 | 91 | 1012.5 |
| 20260507083018 | 55 | 24 | 1.7 | 2.6 | 0.00 | 0.01 | 0.01 | 91 | 1012.3 |
| 20260507082514 | 55 | 42 | 2.6 | 4.3 | 0.00 | 0.01 | 0.01 | 91 | 1012.5 |
| 20260507082010 | 55 | 35 | 2.6 | 4.3 | 0.00 | 0.01 | 0.01 | 92 | 1012.7 |
| 20260507081507 | 55 | 314 | 2.6 | 5.2 | 0.00 | 0.01 | 0.01 | 92 | 1012.5 |
| 20260507081004 | 55 | 23 | 2.6 | 2.6 | 0.00 | 0.01 | 0.01 | 92 | 1012.6 |
| 20260507080459 | 55 | 32 | 3.5 | 4.3 | 0.00 | 0.01 | 0.01 | 92 | 1012.8 |
| 20260507075955 | 56 | 59 | 1.7 | 1.7 | 0.00 | 0.01 | 0.01 | 92 | 1012.5 |
| 20260507075452 | 56 | 42 | 0.9 | 1.7 | 0.00 | 0.01 | 0.01 | 92 | 1012.4 |
| 20260507074948 | 56 | 41 | 2.6 | 2.6 | 0.00 | 0.01 | 0.01 | 92 | 1012.5 |
| 20260507074445 | 56 | 24 | 2.6 | 2.6 | 0.00 | 0.01 | 0.01 | 92 | 1012.4 |
| 20260507073943 | 57 | 52 | 1.7 | 1.7 | 0.00 | 0.01 | 0.01 | 92 | 1012.3 |
| 20260507073439 | 57 | 32 | 4.3 | 5.2 | 0.00 | 0.01 | 0.01 | 92 | 1012.6 |
| 20260507072936 | 59 | 46 | 1.7 | 2.6 | 0.00 | 0.01 | 0.01 | 92 | 1012.3 |
| 20260507072434 | 59 | 53 | 2.6 | 2.6 | 0.00 | 0.01 | 0.01 | 92 | 1012.5 |
| 20260507071931 | 59 | 93 | 0.0 | 0.0 | 0.00 | 0.01 | 0.01 | 90 | 1012.3 |
| 20260507071428 | 59 | 139 | 0.0 | 0.0 | 0.00 | 0.01 | 0.01 | 90 | 1012.3 |
| 20260507070924 | 59 | 134 | 0.0 | 0.0 | 0.00 | 0.01 | 0.01 | 90 | 1011.9 |
| 20260507070422 | 59 | 142 | 0.0 | 0.0 | 0.00 | 0.01 | 0.01 | 90 | 1012.1 |
| 20260507065918 | 59 | 147 | 0.0 | 0.0 | 0.00 | 0.01 | 0.01 | 90 | 1011.9 |
| 20260507065415 | 59 | 124 | 0.0 | 0.0 | 0.00 | 0.01 | 0.01 | 90 | 1011.9 |
| 20260507064912 | 60 | 131 | 0.0 | 0.0 | 0.00 | 0.01 | 0.01 | 91 | 1011.9 |
| 20260507064410 | 60 | 354 | 0.0 | 0.0 | 0.00 | 0.01 | 0.01 | 91 | 1012.0 |
| 20260507063908 | 60 | 143 | 0.0 | 0.0 | 0.00 | 0.01 | 0.01 | 90 | 1011.8 |
| 20260507063405 | 60 | 115 | 0.0 | 0.0 | 0.00 | 0.01 | 0.01 | 90 | 1011.9 |
| 20260507062902 | 61 | 131 | 0.0 | 0.0 | 0.00 | 0.01 | 0.01 | 90 | 1011.9 |
| 20260507062359 | 61 | 163 | 0.0 | 0.0 | 0.00 | 0.01 | 0.01 | 89 | 1012.3 |
| 20260507061856 | 61 | 185 | 0.0 | 0.0 | 0.00 | 0.01 | 0.01 | 89 | 1012.0 |
| 20260507061354 | 62 | 124 | 0.0 | 0.0 | 0.00 | 0.01 | 0.01 | 88 | 1012.3 |
| 20260507060853 | 61 | 148 | 0.0 | 0.0 | 0.00 | 0.01 | 0.01 | 89 | 1012.1 |
| 20260507060349 | 61 | 181 | 0.0 | 0.9 | 0.00 | 0.01 | 0.01 | 90 | 1012.2 |
| 20260507055846 | 61 | 154 | 0.9 | 0.9 | 0.00 | 0.01 | 0.01 | 90 | 1012.2 |
| 20260507055340 | 61 | 109 | 1.7 | 1.7 | 0.00 | 0.01 | 0.01 | 92 | 1012.2 |
| 20260507054838 | 60 | 16 | 1.7 | 1.7 | 0.00 | 0.01 | 0.01 | 94 | 1012.4 |
| 20260507054334 | 60 | 338 | 2.6 | 2.6 | 0.00 | 0.01 | 0.01 | 97 | 1012.1 |
| 20260507053831 | 61 | 4 | 3.5 | 5.2 | 0.00 | 0.01 | 0.01 | 99 | 1012.4 |
| 20260507053329 | 61 | 79 | 0.0 | 0.0 | 0.00 | 0.01 | 0.01 | 99 | 1012.5 |
| 20260507052828 | 61 | 101 | 1.7 | 2.6 | 0.00 | 0.01 | 0.01 | 99 | 1012.4 |
| 20260507052324 | 61 | 134 | 0.0 | 0.0 | 0.00 | 0.01 | 0.01 | 99 | 1012.3 |
| 20260507051822 | 61 | 39 | 1.7 | 1.7 | 0.00 | 0.01 | 0.01 | 99 | 1012.2 |
| 20260507051319 | 61 | 37 | 1.7 | 1.7 | 0.00 | 0.01 | 0.01 | 99 | 1012.1 |
| 20260507050816 | 61 | 63 | 0.9 | 1.7 | 0.00 | 0.01 | 0.01 | 99 | 1011.9 |
| 20260507050312 | 61 | 84 | 0.0 | 0.0 | 0.00 | 0.01 | 0.01 | 99 | 1011.7 |
| 20260507045809 | 61 | 354 | 0.0 | 0.0 | 0.00 | 0.01 | 0.01 | 98 | 1011.7 |
| 20260507045306 | 61 | 102 | 0.0 | 0.0 | 0.00 | 0.01 | 0.01 | 97 | 1011.1 |
| 20260507044803 | 61 | 159 | 0.0 | 0.0 | 0.00 | 0.01 | 0.01 | 97 | 1010.8 |
| 20260507044259 | 61 | 168 | 0.9 | 0.9 | 0.00 | 0.01 | 0.01 | 96 | 1010.4 |
| 20260507043755 | 61 | 150 | 0.0 | 0.9 | 0.00 | 0.01 | 0.01 | 96 | 1011.1 |
| 20260507043252 | 62 | 154 | 0.0 | 0.9 | 0.00 | 0.01 | 0.01 | 96 | 1011.5 |
| 20260507042748 | 62 | 90 | 1.7 | 1.7 | 0.00 | 0.01 | 0.01 | 96 | 1012.2 |
| 20260507042243 | 62 | 77 | 2.6 | 2.6 | 0.00 | 0.01 | 0.01 | 96 | 1011.9 |
| 20260507041741 | 62 | 344 | 2.6 | 2.6 | 0.00 | 0.01 | 0.01 | 96 | 1012.0 |
| 20260507041237 | 62 | 3 | 1.7 | 1.7 | 0.07 | 0.01 | 0.01 | 97 | 1011.6 |
| 20260507040735 | 62 | 44 | 0.0 | 0.0 | 0.07 | 0.01 | 0.01 | 97 | 1011.8 |
| 20260507040231 | 63 | 25 | 2.6 | 4.3 | 0.00 | 0.00 | 0.00 | 97 | 1011.8 |
| 20260507035727 | 63 | 337 | 2.6 | 4.3 | 0.00 | 0.05 | 0.05 | 97 | 1012.0 |
| 20260507035222 | 63 | 0 | 2.6 | 2.6 | 0.00 | 0.05 | 0.05 | 96 | 1012.1 |
| 20260507034720 | 63 | 355 | 2.6 | 2.6 | 0.00 | 0.05 | 0.05 | 95 | 1012.1 |
| 20260507034217 | 63 | 146 | 0.0 | 0.0 | 0.00 | 0.05 | 0.05 | 94 | 1012.0 |
| 20260507033715 | 63 | 131 | 0.0 | 0.0 | 0.00 | 0.05 | 0.05 | 93 | 1012.2 |
| 20260507033212 | 63 | 140 | 0.0 | 0.0 | 0.00 | 0.05 | 0.05 | 92 | 1012.1 |
| 20260507032710 | 63 | 161 | 0.0 | 0.0 | 0.00 | 0.05 | 0.05 | 92 | 1012.4 |
| 20260507032205 | 64 | 123 | 0.0 | 0.0 | 0.05 | 0.05 | 0.05 | 92 | 1012.6 |
| 20260507031702 | 64 | 14 | 2.6 | 2.6 | 0.05 | 0.05 | 0.05 | 92 | 1012.8 |
| 20260507031159 | 64 | 120 | 0.0 | 0.0 | 0.00 | 0.04 | 0.04 | 91 | 1012.3 |
| 20260507030656 | 64 | 156 | 0.0 | 0.0 | 0.00 | 0.04 | 0.04 | 91 | 1012.2 |
| 20260507030154 | 64 | 195 | 0.0 | 0.0 | 0.00 | 0.04 | 0.04 | 91 | 1012.4 |
| 20260507025651 | 63 | 350 | 1.7 | 1.7 | 0.00 | 0.04 | 0.04 | 91 | 1012.5 |
| 20260507025147 | 63 | 54 | 2.6 | 2.6 | 0.07 | 0.04 | 0.04 | 88 | 1011.9 |
| 20260507024645 | 63 | 162 | 0.0 | 0.0 | 0.07 | 0.04 | 0.04 | 87 | 1012.0 |
| 20260507024143 | 64 | 185 | 0.0 | 0.0 | 0.00 | 0.03 | 0.03 | 85 | 1012.0 |
| 20260507023638 | 64 | 194 | 0.0 | 0.0 | 0.00 | 0.03 | 0.03 | 85 | 1011.8 |
| 20260507023136 | 64 | 172 | 0.0 | 0.0 | 0.05 | 0.03 | 0.03 | 84 | 1012.0 |
| 20260507022632 | 65 | 132 | 0.0 | 0.0 | 0.05 | 0.03 | 0.03 | 83 | 1011.8 |
| 20260507022128 | 65 | 143 | 0.0 | 0.0 | 0.00 | 0.02 | 0.02 | 82 | 1011.9 |
| 20260507021625 | 65 | 186 | 0.0 | 0.0 | 0.00 | 0.02 | 0.02 | 81 | 1011.8 |
| 20260507021120 | 65 | 140 | 0.0 | 0.0 | 0.00 | 0.02 | 0.02 | 81 | 1011.7 |
| 20260507020619 | 65 | 142 | 0.0 | 0.0 | 0.00 | 0.02 | 0.02 | 81 | 1011.5 |
| 20260507020114 | 65 | 111 | 0.0 | 0.0 | 0.00 | 0.02 | 0.02 | 80 | 1011.2 |
| 20260507015613 | 66 | 192 | 0.0 | 0.0 | 0.00 | 0.02 | 0.02 | 80 | 1011.4 |
| 20260507015110 | 66 | 170 | 0.0 | 0.0 | 0.00 | 0.02 | 0.02 | 80 | 1011.1 |
| 20260507014607 | 66 | 218 | 0.9 | 1.7 | 0.00 | 0.02 | 0.02 | 80 | 1010.6 |
| 20260507014102 | 66 | 209 | 3.5 | 5.2 | 0.00 | 0.02 | 0.02 | 80 | 1010.7 |
| 20260507013559 | 66 | 180 | 0.9 | 0.9 | 0.00 | 0.02 | 0.02 | 80 | 1010.8 |
| 20260507013056 | 66 | 179 | 0.9 | 1.7 | 0.00 | 0.02 | 0.02 | 79 | 1011.2 |
| 20260507012554 | 66 | 195 | 1.7 | 1.7 | 0.00 | 0.02 | 0.02 | 79 | 1011.2 |
| 20260507012049 | 66 | 192 | 0.0 | 0.0 | 0.00 | 0.02 | 0.02 | 79 | 1011.2 |
| 20260507011547 | 67 | 168 | 0.9 | 0.9 | 0.00 | 0.02 | 0.02 | 79 | 1011.2 |
| 20260507011038 | 67 | 186 | 0.0 | 0.0 | 0.00 | 0.02 | 0.02 | 78 | 1011.4 |
| 20260507010538 | 67 | 177 | 0.0 | 0.0 | 0.00 | 0.02 | 0.02 | 78 | 1011.2 |
| 20260507010034 | 67 | 178 | 0.0 | 0.0 | 0.00 | 0.02 | 0.02 | 78 | 1011.4 |
| 20260507005532 | 67 | 164 | 0.0 | 0.0 | 0.00 | 0.02 | 0.02 | 78 | 1011.5 |
| 20260507005028 | 67 | 178 | 0.0 | 0.0 | 0.00 | 0.02 | 0.02 | 78 | 1011.6 |
| 20260507004525 | 67 | 196 | 0.9 | 1.7 | 0.00 | 0.02 | 0.02 | 78 | 1011.4 |
| 20260507004023 | 67 | 195 | 0.9 | 1.7 | 0.00 | 0.02 | 0.02 | 78 | 1011.7 |
| 20260507003518 | 67 | 192 | 0.0 | 0.0 | 0.00 | 0.02 | 0.02 | 78 | 1011.5 |
| 20260507003013 | 67 | 193 | 0.9 | 0.9 | 0.00 | 0.02 | 0.02 | 77 | 1011.6 |
| 20260507002510 | 68 | 176 | 1.7 | 1.7 | 0.00 | 0.02 | 0.02 | 77 | 1011.3 |